Simultaneous Nadir Overpasses (SNOs) Predictions

Prediction of SNOs between GOES-17 and AQUA Satellite Orbit:

Table of predicted SNOs for the next 14.0 days since TLE Epoch: 1/10/2020
Index Date Time (GOES-17) GOES-17 Lat,Lon AQUA Lat,Lon Distance(km) Time Diff (sec)
1 01/11/2020 22:30:14 -0.04,-137.19 0.78,-133.47 423.81 80
2 01/12/2020 10:51:29 0.04,-137.18 0.33,-138.62 162.70 80
3 01/14/2020 10:36:38 0.04,-137.16 -0.26,-135.66 170.97 80
4 01/14/2020 22:58:03 -0.04,-137.16 -0.84,-140.85 420.37 80
5 01/16/2020 22:45:53 -0.04,-137.13 -0.18,-137.90 87.17 80
6 01/18/2020 22:33:42 -0.04,-137.10 0.43,-134.94 245.66 80
7 01/19/2020 10:57:37 0.05,-137.09 0.68,-140.09 340.96 80
8 01/21/2020 10:45:26 0.05,-137.05 0.07,-137.13 8.97 80
9 01/23/2020 10:30:35 0.06,-137.01 -0.54,-134.17 322.47 80
10 01/23/2020 22:52:00 -0.06,-136.99 -0.55,-139.37 269.60 80




NCC Satellite Simultaneous Nadir Overpasses (SNOs) Prediction Service
